Location: Koslow
(50.3020°N, 18.5663°E)
Time: 12:56:23
(UTC+00:00)

FALCON 9 DEB - Pass Details

Date: 07 June 2020
Orbit: 428 x 442 km, 53.0° (Epoch: 11 July)

Event Time Altitude Azimuth Distance (km) Brightness Sun altitude
Rises 00:36:32 0° 290° (WNW) 2,406 6.8 -12.8°
Reaches altitude 10° 00:38:38 10° 290° (WNW) 1,539 5.8 -12.7°
Maximum altitude 00:42:06 89° 352° (N) 440 3.1 -12.4°
Drops below altitude 10° 00:45:34 10° 111° (ESE) 1,542 6.0 -12.2°
Sets 00:47:41 0° 112° (ESE) 2,411 7.0 -12.0°
